| time (UTC) | temp F | wind direction | speed knots | gust knots | rain 1hr in | rain 24hr in | rain mn in | humidity % | barometer mb |
| 20260505140246 | 70 | 185 | 0.0 | 2.6 | 0.00 | 0.00 | 0.00 | 57 | 1019.3 |
| 20260505130210 | 64 | 191 | 0.0 | 0.0 | 0.00 | 0.00 | 0.00 | 70 | 1019.1 |
| 20260505124700 | 61 | 187 | 0.0 | 0.9 | 0.00 | 0.00 | 0.00 | 74 | 1019.3 |
| 20260505124157 | 60 | 188 | 0.0 | 0.0 | 0.00 | 0.00 | 0.00 | 76 | 1019.2 |
| 20260505123653 | 59 | 188 | 0.0 | 0.0 | 0.00 | 0.00 | 0.00 | 77 | 1019.1 |
| 20260505123150 | 58 | 157 | 0.0 | 0.0 | 0.00 | 0.00 | 0.00 | 78 | 1019.1 |
| 20260505122646 | 57 | 155 | 0.0 | 0.0 | 0.00 | 0.00 | 0.00 | 80 | 1019.1 |
| 20260505122143 | 56 | 155 | 0.0 | 0.0 | 0.00 | 0.00 | 0.00 | 81 | 1019.0 |
| 20260505121640 | 55 | 155 | 0.0 | 0.0 | 0.00 | 0.00 | 0.00 | 81 | 1019.0 |
| 20260505121137 | 55 | 152 | 0.0 | 0.0 | 0.00 | 0.00 | 0.00 | 82 | 1018.8 |
| 20260505120633 | 54 | 143 | 0.0 | 0.0 | 0.00 | 0.00 | 0.00 | 82 | 1018.9 |
| 20260505120129 | 54 | 143 | 0.0 | 0.0 | 0.00 | 0.00 | 0.00 | 83 | 1018.8 |
| 20260505115623 | 53 | 143 | 0.0 | 0.0 | 0.00 | 0.00 | 0.00 | 82 | 1018.9 |
| 20260505115121 | 53 | 143 | 0.0 | 0.0 | 0.00 | 0.00 | 0.00 | 82 | 1018.7 |
| 20260505114612 | 52 | 143 | 0.0 | 0.0 | 0.00 | 0.00 | 0.00 | 82 | 1018.6 |
| 20260505114109 | 52 | 143 | 0.0 | 0.0 | 0.00 | 0.00 | 0.00 | 82 | 1018.7 |
| 20260505113605 | 52 | 143 | 0.0 | 0.0 | 0.00 | 0.00 | 0.00 | 82 | 1018.8 |
| 20260505113102 | 52 | 155 | 0.0 | 0.0 | 0.00 | 0.00 | 0.00 | 82 | 1018.7 |
| 20260505112558 | 52 | 155 | 0.0 | 0.0 | 0.00 | 0.00 | 0.00 | 82 | 1018.7 |
| 20260505112056 | 51 | 155 | 0.0 | 0.0 | 0.00 | 0.00 | 0.00 | 82 | 1018.5 |
| 20260505111555 | 51 | 155 | 0.0 | 0.0 | 0.00 | 0.00 | 0.00 | 82 | 1018.6 |
| 20260505111051 | 51 | 155 | 0.0 | 0.0 | 0.00 | 0.00 | 0.00 | 82 | 1018.4 |
| 20260505110548 | 51 | 155 | 0.0 | 0.0 | 0.00 | 0.00 | 0.00 | 81 | 1018.6 |
| 20260505102020 | 52 | 155 | 0.0 | 0.0 | 0.00 | 0.00 | 0.00 | 80 | 1018.2 |
| 20260505101519 | 52 | 155 | 0.0 | 0.0 | 0.00 | 0.00 | 0.00 | 80 | 1018.1 |
| 20260505101015 | 52 | 155 | 0.0 | 0.0 | 0.00 | 0.00 | 0.00 | 79 | 1018.2 |
| 20260505100512 | 53 | 155 | 0.0 | 0.0 | 0.00 | 0.00 | 0.00 | 79 | 1018.2 |
| 20260505100009 | 53 | 155 | 0.0 | 0.0 | 0.00 | 0.00 | 0.00 | 79 | 1018.1 |
| 20260505095505 | 53 | 155 | 0.0 | 0.0 | 0.00 | 0.00 | 0.00 | 80 | 1018.1 |
| 20260505095001 | 53 | 155 | 0.0 | 0.0 | 0.00 | 0.00 | 0.00 | 79 | 1018.1 |
| 20260505094458 | 54 | 155 | 0.0 | 0.0 | 0.00 | 0.00 | 0.00 | 79 | 1017.9 |
| 20260505093954 | 54 | 155 | 0.0 | 0.0 | 0.00 | 0.00 | 0.00 | 78 | 1018.0 |
| 20260505093451 | 54 | 155 | 0.0 | 0.0 | 0.00 | 0.00 | 0.00 | 78 | 1018.0 |
| 20260505092949 | 54 | 155 | 0.0 | 0.0 | 0.00 | 0.00 | 0.00 | 78 | 1017.6 |
| 20260505092446 | 54 | 155 | 0.0 | 0.0 | 0.00 | 0.00 | 0.00 | 78 | 1017.7 |
| 20260505091943 | 54 | 155 | 0.0 | 0.0 | 0.00 | 0.00 | 0.00 | 78 | 1017.7 |
| 20260505091441 | 55 | 155 | 0.0 | 0.0 | 0.00 | 0.00 | 0.00 | 77 | 1017.9 |
| 20260505090939 | 55 | 155 | 0.0 | 0.0 | 0.00 | 0.00 | 0.00 | 77 | 1017.9 |
| 20260505090437 | 55 | 155 | 0.0 | 0.0 | 0.00 | 0.00 | 0.00 | 76 | 1017.8 |
| 20260505085934 | 55 | 155 | 0.0 | 0.0 | 0.00 | 0.00 | 0.00 | 76 | 1017.9 |
| 20260505085431 | 56 | 154 | 0.0 | 0.0 | 0.00 | 0.00 | 0.00 | 75 | 1017.8 |
| 20260505084930 | 56 | 154 | 0.0 | 0.0 | 0.00 | 0.00 | 0.00 | 74 | 1017.7 |
| 20260505084427 | 57 | 154 | 0.0 | 0.0 | 0.00 | 0.00 | 0.00 | 74 | 1017.6 |
| 20260505083925 | 57 | 154 | 0.0 | 0.0 | 0.00 | 0.00 | 0.00 | 73 | 1017.6 |
| 20260505083423 | 57 | 154 | 0.0 | 0.0 | 0.00 | 0.00 | 0.00 | 73 | 1017.8 |
| 20260505082918 | 58 | 162 | 0.0 | 0.0 | 0.00 | 0.00 | 0.00 | 72 | 1017.7 |
| 20260505082414 | 58 | 163 | 0.0 | 0.0 | 0.00 | 0.00 | 0.00 | 72 | 1017.7 |
| 20260505081912 | 58 | 162 | 0.0 | 0.0 | 0.00 | 0.00 | 0.00 | 70 | 1017.7 |
| 20260505081408 | 59 | 163 | 0.0 | 0.0 | 0.00 | 0.00 | 0.00 | 69 | 1017.6 |
| 20260505080905 | 59 | 163 | 0.0 | 0.0 | 0.00 | 0.00 | 0.00 | 68 | 1017.6 |
| 20260505080401 | 59 | 163 | 0.0 | 0.0 | 0.00 | 0.00 | 0.00 | 68 | 1017.5 |
| 20260505075856 | 59 | 163 | 0.0 | 0.0 | 0.00 | 0.00 | 0.00 | 67 | 1017.5 |
| 20260505075353 | 59 | 162 | 0.0 | 0.0 | 0.00 | 0.00 | 0.00 | 67 | 1017.7 |
| 20260505074851 | 59 | 171 | 0.0 | 0.0 | 0.00 | 0.00 | 0.00 | 67 | 1017.7 |
| 20260505074348 | 59 | 186 | 0.0 | 0.0 | 0.00 | 0.00 | 0.00 | 67 | 1017.6 |
| 20260505073845 | 59 | 187 | 0.0 | 0.9 | 0.00 | 0.00 | 0.00 | 67 | 1017.4 |
| 20260505073343 | 60 | 186 | 0.0 | 0.0 | 0.00 | 0.00 | 0.00 | 66 | 1017.3 |
| 20260505072840 | 60 | 186 | 0.0 | 0.0 | 0.00 | 0.00 | 0.00 | 65 | 1017.3 |
| 20260505072336 | 60 | 159 | 0.0 | 0.0 | 0.00 | 0.00 | 0.00 | 65 | 1017.2 |
| 20260505071832 | 60 | 173 | 0.0 | 0.0 | 0.00 | 0.00 | 0.00 | 65 | 1017.5 |
| 20260505071328 | 60 | 173 | 0.0 | 0.9 | 0.00 | 0.00 | 0.00 | 65 | 1017.3 |
| 20260505070827 | 59 | 173 | 0.0 | 0.0 | 0.00 | 0.00 | 0.00 | 65 | 1017.1 |
| 20260505070323 | 59 | 173 | 0.0 | 0.0 | 0.00 | 0.00 | 0.00 | 65 | 1017.3 |
| 20260505065818 | 60 | 173 | 0.0 | 0.0 | 0.00 | 0.00 | 0.00 | 65 | 1017.3 |
| 20260505065315 | 60 | 183 | 0.0 | 0.9 | 0.00 | 0.00 | 0.00 | 64 | 1017.3 |
| 20260505064813 | 60 | 183 | 0.0 | 0.0 | 0.00 | 0.00 | 0.00 | 64 | 1017.3 |
| 20260505064309 | 60 | 183 | 0.0 | 0.0 | 0.00 | 0.00 | 0.00 | 64 | 1017.4 |
| 20260505063808 | 60 | 174 | 0.0 | 0.0 | 0.00 | 0.00 | 0.00 | 64 | 1017.2 |
| 20260505063303 | 60 | 174 | 0.0 | 0.0 | 0.00 | 0.00 | 0.00 | 63 | 1017.3 |
| 20260505062800 | 60 | 175 | 0.0 | 0.0 | 0.00 | 0.00 | 0.00 | 62 | 1017.4 |
| 20260505062258 | 60 | 163 | 0.0 | 0.0 | 0.00 | 0.00 | 0.00 | 63 | 1017.4 |
| 20260505061754 | 60 | 164 | 0.0 | 0.0 | 0.00 | 0.00 | 0.00 | 62 | 1017.4 |
| 20260505061252 | 60 | 178 | 0.0 | 0.0 | 0.00 | 0.00 | 0.00 | 62 | 1017.4 |
| 20260505060749 | 60 | 173 | 0.0 | 0.0 | 0.00 | 0.00 | 0.00 | 63 | 1017.5 |
| 20260505060246 | 60 | 174 | 0.0 | 0.0 | 0.00 | 0.00 | 0.00 | 63 | 1017.5 |
| 20260505055741 | 60 | 174 | 0.0 | 0.9 | 0.00 | 0.00 | 0.00 | 63 | 1017.6 |
| 20260505055233 | 60 | 182 | 0.0 | 0.9 | 0.00 | 0.00 | 0.00 | 61 | 1017.6 |
| 20260505054730 | 60 | 166 | 0.0 | 0.0 | 0.00 | 0.00 | 0.00 | 63 | 1017.5 |
| 20260505054228 | 60 | 166 | 0.0 | 0.0 | 0.00 | 0.00 | 0.00 | 63 | 1017.6 |
| 20260505053726 | 60 | 166 | 0.0 | 0.0 | 0.00 | 0.00 | 0.00 | 63 | 1017.7 |
| 20260505053222 | 60 | 168 | 0.0 | 0.0 | 0.00 | 0.00 | 0.00 | 62 | 1017.7 |
| 20260505052720 | 60 | 168 | 0.0 | 0.0 | 0.00 | 0.00 | 0.00 | 63 | 1017.7 |
| 20260505052216 | 60 | 168 | 0.0 | 0.0 | 0.00 | 0.00 | 0.00 | 61 | 1017.7 |
| 20260505051714 | 60 | 172 | 0.0 | 0.0 | 0.00 | 0.00 | 0.00 | 61 | 1017.7 |
| 20260505051211 | 60 | 172 | 0.0 | 0.0 | 0.00 | 0.00 | 0.00 | 62 | 1017.8 |
| 20260505050709 | 60 | 172 | 0.0 | 0.0 | 0.00 | 0.00 | 0.00 | 62 | 1017.9 |
| 20260505050208 | 60 | 172 | 0.0 | 0.0 | 0.00 | 0.00 | 0.00 | 62 | 1017.9 |
| 20260505041642 | 62 | 172 | 0.0 | 0.0 | 0.00 | 0.00 | 0.00 | 56 | 1018.0 |
| 20260505041140 | 62 | 172 | 0.0 | 0.0 | 0.00 | 0.00 | 0.00 | 55 | 1017.8 |
| 20260505040636 | 62 | 172 | 0.0 | 0.0 | 0.00 | 0.00 | 0.00 | 54 | 1017.6 |
| 20260505040134 | 62 | 172 | 0.0 | 0.0 | 0.00 | 0.00 | 0.00 | 54 | 1017.9 |
| 20260505035630 | 62 | 169 | 0.0 | 0.9 | 0.00 | 0.00 | 0.00 | 54 | 1017.9 |
| 20260505035126 | 62 | 152 | 0.0 | 0.0 | 0.00 | 0.00 | 0.00 | 53 | 1017.9 |
| 20260505034623 | 62 | 152 | 0.0 | 0.0 | 0.00 | 0.00 | 0.00 | 53 | 1018.1 |
| 20260505034120 | 62 | 181 | 0.0 | 0.0 | 0.00 | 0.00 | 0.00 | 51 | 1017.9 |
| 20260505033616 | 62 | 181 | 0.0 | 0.0 | 0.00 | 0.00 | 0.00 | 52 | 1018.1 |
| 20260505033115 | 62 | 181 | 0.0 | 0.0 | 0.00 | 0.00 | 0.00 | 50 | 1018.1 |
| 20260505032612 | 62 | 181 | 0.0 | 0.0 | 0.00 | 0.00 | 0.00 | 50 | 1017.9 |
| 20260505032109 | 62 | 181 | 0.0 | 0.0 | 0.00 | 0.00 | 0.00 | 49 | 1017.7 |
| 20260505031606 | 61 | 181 | 0.0 | 0.0 | 0.00 | 0.00 | 0.00 | 51 | 1018.0 |
| 20260505031102 | 61 | 181 | 0.0 | 0.0 | 0.00 | 0.00 | 0.00 | 54 | 1017.9 |
| 20260505030559 | 62 | 181 | 0.0 | 0.9 | 0.00 | 0.00 | 0.00 | 53 | 1017.7 |
| 20260505030055 | 62 | 181 | 0.0 | 0.0 | 0.00 | 0.00 | 0.00 | 53 | 1017.6 |
| 20260505025551 | 62 | 181 | 0.0 | 0.0 | 0.00 | 0.00 | 0.00 | 53 | 1017.7 |
| 20260505025050 | 62 | 181 | 0.0 | 0.0 | 0.00 | 0.00 | 0.00 | 53 | 1017.7 |
| 20260505024547 | 62 | 181 | 0.0 | 0.0 | 0.00 | 0.00 | 0.00 | 53 | 1017.8 |
| 20260505024044 | 62 | 181 | 0.0 | 0.0 | 0.00 | 0.00 | 0.00 | 55 | 1017.6 |
| 20260505023541 | 62 | 181 | 0.0 | 0.0 | 0.00 | 0.00 | 0.00 | 52 | 1017.7 |
| 20260505023039 | 62 | 181 | 0.0 | 0.0 | 0.00 | 0.00 | 0.00 | 51 | 1017.7 |
| 20260505022536 | 63 | 181 | 0.0 | 0.0 | 0.00 | 0.00 | 0.00 | 52 | 1017.6 |
| 20260505022033 | 63 | 181 | 0.0 | 0.0 | 0.00 | 0.00 | 0.00 | 53 | 1017.5 |
| 20260505021529 | 63 | 181 | 0.0 | 0.0 | 0.00 | 0.00 | 0.00 | 54 | 1017.6 |
| 20260505021026 | 63 | 181 | 0.0 | 0.0 | 0.00 | 0.00 | 0.00 | 54 | 1017.4 |
| 20260505020520 | 64 | 181 | 0.0 | 0.0 | 0.00 | 0.00 | 0.00 | 54 | 1017.5 |
| 20260505020018 | 64 | 181 | 0.0 | 0.0 | 0.00 | 0.00 | 0.00 | 53 | 1017.3 |
| 20260505015515 | 64 | 181 | 0.0 | 0.0 | 0.00 | 0.00 | 0.00 | 50 | 1017.2 |
| 20260505015012 | 64 | 181 | 0.0 | 0.0 | 0.00 | 0.00 | 0.00 | 48 | 1017.3 |
| 20260505014509 | 64 | 181 | 0.0 | 0.0 | 0.00 | 0.00 | 0.00 | 48 | 1017.3 |
| 20260505014006 | 65 | 181 | 0.0 | 0.0 | 0.00 | 0.00 | 0.00 | 50 | 1017.3 |
| 20260505013503 | 65 | 181 | 0.0 | 0.0 | 0.00 | 0.00 | 0.00 | 47 | 1017.3 |
| 20260505013000 | 65 | 181 | 0.0 | 0.0 | 0.00 | 0.00 | 0.00 | 47 | 1017.3 |
| 20260505012458 | 65 | 181 | 0.0 | 0.0 | 0.00 | 0.00 | 0.00 | 49 | 1017.1 |
| 20260505011955 | 65 | 181 | 0.0 | 0.0 | 0.00 | 0.00 | 0.00 | 45 | 1017.1 |
| 20260505011450 | 65 | 181 | 0.0 | 0.0 | 0.00 | 0.00 | 0.00 | 53 | 1017.0 |
| 20260505010947 | 66 | 181 | 0.0 | 0.0 | 0.00 | 0.00 | 0.00 | 48 | 1017.0 |
| 20260505010443 | 66 | 181 | 0.0 | 0.0 | 0.00 | 0.00 | 0.00 | 51 | 1017.0 |
| 20260505005939 | 66 | 181 | 0.0 | 0.0 | 0.00 | 0.00 | 0.00 | 50 | 1016.9 |
| 20260505005436 | 66 | 181 | 0.0 | 0.0 | 0.00 | 0.00 | 0.00 | 43 | 1016.8 |
| 20260505004934 | 66 | 181 | 0.0 | 0.0 | 0.00 | 0.00 | 0.00 | 47 | 1016.7 |
| 20260505004430 | 67 | 181 | 0.0 | 0.0 | 0.00 | 0.00 | 0.00 | 45 | 1016.7 |
| 20260505003927 | 67 | 181 | 0.0 | 0.0 | 0.00 | 0.00 | 0.00 | 47 | 1016.6 |
| 20260505003425 | 67 | 181 | 0.0 | 0.0 | 0.00 | 0.00 | 0.00 | 47 | 1016.4 |
| 20260505002921 | 68 | 181 | 0.0 | 0.0 | 0.00 | 0.00 | 0.00 | 46 | 1016.4 |
| 20260505002417 | 68 | 181 | 0.0 | 0.0 | 0.00 | 0.00 | 0.00 | 44 | 1016.4 |
| 20260505001916 | 68 | 181 | 0.0 | 0.0 | 0.00 | 0.00 | 0.00 | 40 | 1016.3 |
| 20260505001413 | 69 | 181 | 0.0 | 0.0 | 0.00 | 0.00 | 0.00 | 41 | 1016.5 |
| 20260505000910 | 69 | 181 | 0.0 | 0.0 | 0.00 | 0.00 | 0.00 | 42 | 1016.4 |
| 20260505000408 | 70 | 181 | 0.0 | 0.0 | 0.00 | 0.00 | 0.00 | 38 | 1016.1 |
| 20260504235904 | 70 | 181 | 0.0 | 0.0 | 0.00 | 0.00 | 0.00 | 36 | 1016.2 |
| 20260504235401 | 71 | 181 | 0.0 | 0.0 | 0.00 | 0.00 | 0.00 | 41 | 1016.2 |
| 20260504234857 | 71 | 181 | 0.0 | 0.0 | 0.00 | 0.00 | 0.00 | 36 | 1016.0 |
| 20260504234355 | 72 | 181 | 0.0 | 0.0 | 0.00 | 0.00 | 0.00 | 31 | 1015.9 |
| 20260504233851 | 72 | 181 | 0.0 | 0.0 | 0.00 | 0.00 | 0.00 | 30 | 1015.8 |
| 20260504233347 | 73 | 181 | 0.0 | 0.0 | 0.00 | 0.00 | 0.00 | 30 | 1015.9 |
| 20260504232844 | 73 | 181 | 0.0 | 0.0 | 0.00 | 0.00 | 0.00 | 29 | 1015.9 |
| 20260504232341 | 73 | 181 | 0.0 | 0.0 | 0.00 | 0.00 | 0.00 | 28 | 1015.8 |
| 20260504231838 | 74 | 181 | 0.0 | 0.0 | 0.00 | 0.00 | 0.00 | 28 | 1015.9 |
| 20260504231334 | 74 | 181 | 0.0 | 0.0 | 0.00 | 0.00 | 0.00 | 28 | 1015.8 |
| 20260504230830 | 75 | 181 | 0.0 | 0.0 | 0.00 | 0.00 | 0.00 | 27 | 1016.0 |
| 20260504230329 | 75 | 181 | 0.0 | 0.0 | 0.00 | 0.00 | 0.00 | 31 | 1015.9 |
| 20260504225827 | 75 | 181 | 0.0 | 0.0 | 0.00 | 0.00 | 0.00 | 27 | 1015.9 |
| 20260504225323 | 76 | 181 | 0.0 | 0.0 | 0.00 | 0.00 | 0.00 | 25 | 1015.8 |
| 20260504224821 | 76 | 181 | 0.0 | 0.0 | 0.00 | 0.00 | 0.00 | 30 | 1016.0 |
| 20260504224317 | 76 | 189 | 0.0 | 0.0 | 0.00 | 0.00 | 0.00 | 31 | 1016.0 |
| 20260504223814 | 77 | 188 | 0.0 | 0.0 | 0.00 | 0.00 | 0.00 | 30 | 1016.1 |
| 20260504223309 | 77 | 189 | 0.0 | 0.9 | 0.00 | 0.00 | 0.00 | 25 | 1016.1 |
| 20260504222807 | 78 | 192 | 0.0 | 0.0 | 0.00 | 0.00 | 0.00 | 26 | 1016.1 |
| 20260504222304 | 78 | 192 | 0.0 | 0.0 | 0.00 | 0.00 | 0.00 | 26 | 1016.0 |
| 20260504221801 | 78 | 185 | 0.0 | 0.9 | 0.00 | 0.00 | 0.00 | 24 | 1016.0 |
| 20260504221258 | 78 | 190 | 0.0 | 0.0 | 0.00 | 0.00 | 0.00 | 22 | 1016.1 |
| 20260504220755 | 78 | 190 | 0.0 | 0.0 | 0.00 | 0.00 | 0.00 | 25 | 1016.0 |
| 20260504220252 | 79 | 190 | 0.0 | 0.0 | 0.00 | 0.00 | 0.00 | 24 | 1016.1 |
| 20260504215750 | 79 | 163 | 0.0 | 0.9 | 0.00 | 0.00 | 0.00 | 24 | 1016.1 |
| 20260504215246 | 79 | 175 | 0.0 | 0.0 | 0.00 | 0.00 | 0.00 | 23 | 1015.9 |
| 20260504214741 | 79 | 210 | 0.9 | 1.7 | 0.00 | 0.00 | 0.00 | 19 | 1015.9 |
| 20260504214238 | 79 | 184 | 0.0 | 0.0 | 0.00 | 0.00 | 0.00 | 21 | 1016.0 |
| 20260504213735 | 79 | 194 | 0.9 | 0.9 | 0.00 | 0.00 | 0.00 | 22 | 1016.0 |
| 20260504213231 | 80 | 109 | 0.9 | 1.7 | 0.00 | 0.00 | 0.00 | 20 | 1016.0 |
| 20260504212728 | 80 | 166 | 0.9 | 0.9 | 0.00 | 0.00 | 0.00 | 22 | 1015.9 |
| 20260504212225 | 80 | 176 | 0.0 | 0.9 | 0.00 | 0.00 | 0.00 | 20 | 1015.8 |
| 20260504211723 | 80 | 178 | 0.0 | 1.7 | 0.00 | 0.00 | 0.00 | 21 | 1015.7 |
| 20260504211219 | 80 | 184 | 0.0 | 0.9 | 0.00 | 0.00 | 0.00 | 22 | 1015.9 |
| 20260504210716 | 80 | 184 | 0.0 | 2.6 | 0.00 | 0.00 | 0.00 | 22 | 1015.8 |
| 20260504210213 | 80 | 178 | 0.0 | 1.7 | 0.00 | 0.00 | 0.00 | 21 | 1015.7 |
| 20260504205710 | 81 | 175 | 0.0 | 0.9 | 0.00 | 0.00 | 0.00 | 22 | 1015.8 |
| 20260504205207 | 81 | 168 | 0.9 | 0.9 | 0.00 | 0.00 | 0.00 | 19 | 1016.1 |
| 20260504204706 | 80 | 189 | 0.0 | 1.7 | 0.00 | 0.00 | 0.00 | 20 | 1016.1 |
| 20260504204204 | 80 | 184 | 0.9 | 0.9 | 0.00 | 0.00 | 0.00 | 19 | 1016.1 |
| 20260504203703 | 81 | 180 | 0.0 | 0.9 | 0.00 | 0.00 | 0.00 | 20 | 1015.9 |
| 20260504203201 | 81 | 151 | 0.0 | 0.9 | 0.00 | 0.00 | 0.00 | 21 | 1016.0 |
| 20260504202700 | 81 | 182 | 0.0 | 0.9 | 0.00 | 0.00 | 0.00 | 22 | 1016.4 |
| 20260504202157 | 80 | 170 | 0.0 | 0.0 | 0.00 | 0.00 | 0.00 | 17 | 1016.2 |
| 20260504201654 | 80 | 197 | 0.9 | 0.9 | 0.00 | 0.00 | 0.00 | 18 | 1016.3 |
| 20260504201152 | 81 | 207 | 0.9 | 0.9 | 0.00 | 0.00 | 0.00 | 19 | 1016.4 |
| 20260504200649 | 80 | 184 | 0.0 | 0.9 | 0.00 | 0.00 | 0.00 | 20 | 1016.4 |
| 20260504200145 | 80 | 192 | 0.9 | 1.7 | 0.00 | 0.00 | 0.00 | 20 | 1016.5 |
| 20260504195641 | 80 | 217 | 0.9 | 0.9 | 0.00 | 0.00 | 0.00 | 21 | 1016.6 |
| 20260504195137 | 80 | 185 | 0.0 | 0.9 | 0.00 | 0.00 | 0.00 | 22 | 1016.7 |
| 20260504194634 | 81 | 188 | 0.0 | 1.7 | 0.00 | 0.00 | 0.00 | 19 | 1016.9 |
| 20260504194130 | 81 | 175 | 0.0 | 0.9 | 0.00 | 0.00 | 0.00 | 21 | 1016.8 |
| 20260504193627 | 81 | 147 | 0.0 | 0.9 | 0.00 | 0.00 | 0.00 | 21 | 1016.9 |
| 20260504193125 | 80 | 180 | 0.9 | 1.7 | 0.00 | 0.00 | 0.00 | 23 | 1017.0 |
| 20260504192623 | 81 | 182 | 0.0 | 0.9 | 0.00 | 0.00 | 0.00 | 19 | 1017.1 |
| 20260504192121 | 81 | 160 | 0.9 | 0.9 | 0.00 | 0.00 | 0.00 | 21 | 1017.1 |
| 20260504191619 | 81 | 122 | 0.9 | 0.9 | 0.00 | 0.00 | 0.00 | 23 | 1017.3 |
| 20260504191115 | 81 | 174 | 0.9 | 1.7 | 0.00 | 0.00 | 0.00 | 22 | 1017.2 |
| 20260504190611 | 81 | 182 | 0.0 | 2.6 | 0.00 | 0.00 | 0.00 | 21 | 1017.2 |
| 20260504190108 | 82 | 215 | 0.9 | 0.9 | 0.00 | 0.00 | 0.00 | 22 | 1017.2 |
| 20260504185604 | 82 | 188 | 0.0 | 0.9 | 0.00 | 0.00 | 0.00 | 22 | 1017.3 |
| 20260504185101 | 82 | 167 | 0.9 | 1.7 | 0.00 | 0.00 | 0.00 | 22 | 1017.6 |
| 20260504184556 | 82 | 257 | 1.7 | 1.7 | 0.00 | 0.00 | 0.00 | 20 | 1017.4 |
| 20260504184052 | 83 | 159 | 0.0 | 0.9 | 0.00 | 0.00 | 0.00 | 20 | 1017.4 |
| 20260504183549 | 82 | 170 | 0.0 | 0.9 | 0.00 | 0.00 | 0.00 | 21 | 1017.5 |
| 20260504183047 | 82 | 163 | 0.9 | 1.7 | 0.00 | 0.00 | 0.00 | 22 | 1017.6 |
| 20260504182544 | 82 | 196 | 0.0 | 0.9 | 0.00 | 0.00 | 0.00 | 23 | 1017.7 |
| 20260504182042 | 81 | 195 | 0.9 | 0.9 | 0.00 | 0.00 | 0.00 | 22 | 1017.8 |
| 20260504181539 | 81 | 255 | 1.7 | 1.7 | 0.00 | 0.00 | 0.00 | 22 | 1017.8 |
| 20260504181037 | 81 | 206 | 0.9 | 0.9 | 0.00 | 0.00 | 0.00 | 23 | 1017.8 |
| 20260504180536 | 81 | 199 | 0.9 | 1.7 | 0.00 | 0.00 | 0.00 | 25 | 1017.9 |
| 20260504180034 | 82 | 201 | 0.9 | 1.7 | 0.00 | 0.00 | 0.00 | 24 | 1018.1 |
| 20260504175531 | 81 | 195 | 0.0 | 0.9 | 0.00 | 0.00 | 0.00 | 24 | 1018.0 |
| 20260504175028 | 81 | 176 | 0.0 | 0.9 | 0.00 | 0.00 | 0.00 | 25 | 1018.1 |
| 20260504174526 | 80 | 124 | 0.9 | 0.9 | 0.00 | 0.00 | 0.00 | 24 | 1018.3 |
| 20260504174022 | 79 | 192 | 0.0 | 0.9 | 0.00 | 0.00 | 0.00 | 23 | 1018.4 |
| 20260504173519 | 80 | 200 | 0.0 | 0.9 | 0.00 | 0.00 | 0.00 | 24 | 1018.5 |
| 20260504173016 | 79 | 174 | 0.0 | 0.9 | 0.00 | 0.00 | 0.00 | 27 | 1018.3 |
| 20260504172512 | 79 | 173 | 0.0 | 0.9 | 0.00 | 0.00 | 0.00 | 26 | 1018.5 |
| 20260504172009 | 80 | 202 | 0.9 | 1.7 | 0.00 | 0.00 | 0.00 | 25 | 1018.5 |
| 20260504171506 | 80 | 164 | 0.0 | 1.7 | 0.00 | 0.00 | 0.00 | 25 | 1018.4 |
| 20260504171003 | 79 | 172 | 0.0 | 0.0 | 0.00 | 0.00 | 0.00 | 26 | 1018.6 |
| 20260504170459 | 78 | 163 | 0.0 | 0.9 | 0.00 | 0.00 | 0.00 | 25 | 1018.7 |
| 20260504160419 | 74 | 200 | 0.9 | 0.9 | 0.00 | 0.00 | 0.00 | 32 | 1019.5 |
| 20260504150842 | 70 | 198 | 0.9 | 0.9 | 0.00 | 0.00 | 0.00 | 40 | 1019.9 |
| 20260504150339 | 69 | 170 | 0.0 | 0.0 | 0.00 | 0.00 | 0.00 | 39 | 1019.8 |